| time (UTC) | temp F | wind direction | speed MPH | gust MPH | rain 1hr in | rain 24hr in | rain mn in | humidity % | barometer mb |
| 20260905181534 | 83 | 286 | 4.0 | 9.0 | 0.00 | 0.00 | 0.00 | 32 | 1021.8 |
| 20260905180025 | 82 | 304 | 8.0 | 12.0 | 0.00 | 0.00 | 0.00 | 32 | 1021.9 |
| 20260905174520 | 81 | 318 | 5.0 | 13.0 | 0.00 | 0.00 | 0.00 | 35 | 1022.2 |
| 20260905173020 | 80 | 300 | 5.0 | 12.0 | 0.00 | 0.00 | 0.00 | 36 | 1022.1 |
| 20260905171523 | 79 | 309 | 5.0 | 10.0 | 0.00 | 0.00 | 0.00 | 39 | 1022.3 |
| 20260905170010 | 78 | 315 | 7.0 | 14.0 | 0.00 | 0.00 | 0.00 | 40 | 1022.2 |
| 20260905164507 | 77 | 355 | 8.0 | 13.0 | 0.00 | 0.00 | 0.00 | 41 | 1022.2 |
| 20260905163001 | 76 | 355 | 9.0 | 13.0 | 0.00 | 0.00 | 0.00 | 43 | 1022.3 |
| 20260905161558 | 75 | 284 | 6.0 | 12.0 | 0.00 | 0.00 | 0.00 | 46 | 1022.1 |
| 20260905160055 | 74 | 329 | 6.0 | 11.0 | 0.00 | 0.00 | 0.00 | 50 | 1022.2 |
| 20260905154555 | 73 | 306 | 8.0 | 11.0 | 0.00 | 0.00 | 0.00 | 51 | 1022.2 |
| 20260905153045 | 71 | 315 | 3.0 | 9.0 | 0.00 | 0.00 | 0.00 | 57 | 1022.3 |
| 20260905151543 | 70 | 282 | 5.0 | 12.0 | 0.00 | 0.00 | 0.00 | 60 | 1022.4 |
| 20260905150039 | 68 | 315 | 2.0 | 6.0 | 0.00 | 0.00 | 0.00 | 65 | 1022.2 |
| 20260905144535 | 66 | 313 | 5.0 | 9.0 | 0.00 | 0.00 | 0.00 | 67 | 1022.4 |
| 20260905143035 | 65 | 294 | 2.0 | 5.0 | 0.00 | 0.00 | 0.00 | 71 | 1022.5 |
| 20260905141525 | 63 | 336 | 0.0 | 3.0 | 0.00 | 0.00 | 0.00 | 73 | 1022.6 |
| 20260905140023 | 62 | 337 | 2.0 | 6.0 | 0.00 | 0.00 | 0.00 | 74 | 1022.5 |
| 20260905134516 | 61 | 351 | 1.0 | 5.0 | 0.00 | 0.00 | 0.00 | 77 | 1022.1 |
| 20260905133011 | 60 | 360 | 3.0 | 6.0 | 0.00 | 0.00 | 0.00 | 79 | 1022.0 |
| 20260905131608 | 59 | 336 | 3.0 | 8.0 | 0.00 | 0.00 | 0.00 | 80 | 1021.9 |
| 20260905130005 | 59 | 340 | 2.0 | 5.0 | 0.00 | 0.00 | 0.00 | 79 | 1021.7 |
| 20260905124501 | 59 | 349 | 0.0 | 3.0 | 0.00 | 0.00 | 0.00 | 79 | 1021.5 |
| 20260905121557 | 60 | 349 | 1.0 | 5.0 | 0.00 | 0.00 | 0.00 | 77 | 1021.3 |
| 20260905114553 | 61 | 347 | 0.0 | 0.0 | 0.00 | 0.02 | 0.00 | 72 | 1021.2 |
| 20260905113151 | 61 | 348 | 0.0 | 0.0 | 0.00 | 0.02 | 0.00 | 72 | 1021.1 |
| 20260905111628 | 61 | 347 | 0.0 | 0.0 | 0.00 | 0.02 | 0.00 | 71 | 1021.2 |
| 20260905110050 | 62 | 348 | 0.0 | 3.0 | 0.00 | 0.02 | 0.00 | 70 | 1021.3 |
| 20260905104549 | 62 | 348 | 1.0 | 3.0 | 0.00 | 0.02 | 0.00 | 69 | 1021.2 |
| 20260905103148 | 62 | 346 | 2.0 | 5.0 | 0.00 | 0.02 | 0.00 | 68 | 1021.2 |
| 20260905101547 | 62 | 75 | 0.0 | 2.0 | 0.00 | 0.02 | 0.00 | 67 | 1021.1 |
| 20260905100057 | 62 | 75 | 0.0 | 2.0 | 0.00 | 0.02 | 0.00 | 67 | 1021.1 |
| 20260905094546 | 62 | 74 | 0.0 | 3.0 | 0.00 | 0.02 | 0.00 | 67 | 1021.0 |
| 20260905093046 | 62 | 75 | 2.0 | 3.0 | 0.00 | 0.02 | 0.00 | 69 | 1021.0 |
| 20260905091544 | 61 | 75 | 0.0 | 1.0 | 0.00 | 0.02 | 0.00 | 70 | 1021.1 |
| 20260905090043 | 61 | 75 | 0.0 | 2.0 | 0.00 | 0.02 | 0.00 | 69 | 1021.1 |
| 20260905084546 | 62 | 75 | 0.0 | 0.0 | 0.00 | 0.02 | 0.00 | 68 | 1021.0 |
| 20260905083040 | 62 | 75 | 0.0 | 0.0 | 0.00 | 0.02 | 0.00 | 66 | 1021.0 |
| 20260905081538 | 63 | 75 | 0.0 | 0.0 | 0.00 | 0.02 | 0.00 | 64 | 1021.1 |
| 20260905080044 | 64 | 75 | 1.0 | 3.0 | 0.00 | 0.02 | 0.00 | 63 | 1021.1 |
| 20260905074537 | 64 | 75 | 2.0 | 4.0 | 0.00 | 0.02 | 0.00 | 63 | 1021.1 |
| 20260905073038 | 63 | 75 | 2.0 | 5.0 | 0.00 | 0.02 | 0.00 | 65 | 1021.2 |
| 20260905071535 | 62 | 85 | 0.0 | 2.0 | 0.00 | 0.02 | 0.00 | 69 | 1021.2 |
| 20260905070037 | 62 | 85 | 0.0 | 0.0 | 0.00 | 0.02 | 0.00 | 68 | 1021.2 |
| 20260905064534 | 63 | 85 | 0.0 | 0.0 | 0.00 | 0.02 | 0.00 | 66 | 1021.3 |
| 20260905063028 | 63 | 85 | 0.0 | 0.0 | 0.00 | 0.02 | 0.00 | 65 | 1021.2 |
| 20260905061527 | 64 | 85 | 0.0 | 0.0 | 0.00 | 0.02 | 0.00 | 65 | 1021.3 |
| 20260905060033 | 65 | 85 | 0.0 | 2.0 | 0.00 | 0.02 | 0.00 | 62 | 1021.2 |
| 20260905054523 | 66 | 85 | 1.0 | 2.0 | 0.00 | 0.02 | 0.02 | 59 | 1021.1 |
| 20260905053030 | 66 | 85 | 1.0 | 4.0 | 0.00 | 0.02 | 0.02 | 58 | 1021.1 |
| 20260905051523 | 67 | 85 | 2.0 | 4.0 | 0.00 | 0.02 | 0.02 | 59 | 1021.1 |
| 20260905050022 | 67 | 85 | 2.0 | 4.0 | 0.00 | 0.02 | 0.02 | 61 | 1021.2 |
| 20260905044524 | 67 | 85 | 2.0 | 4.0 | 0.00 | 0.02 | 0.02 | 61 | 1021.3 |
| 20260905043020 | 67 | 84 | 3.0 | 6.0 | 0.00 | 0.02 | 0.02 | 60 | 1021.5 |
| 20260905041520 | 67 | 111 | 0.0 | 6.0 | 0.00 | 0.02 | 0.02 | 60 | 1021.5 |
| 20260905040021 | 67 | 123 | 4.0 | 7.0 | 0.00 | 0.02 | 0.02 | 60 | 1021.6 |
| 20260905034519 | 68 | 154 | 5.0 | 11.0 | 0.00 | 0.02 | 0.02 | 60 | 1021.7 |
| 20260905033019 | 68 | 150 | 3.0 | 7.0 | 0.00 | 0.02 | 0.02 | 60 | 1021.8 |
| 20260905031528 | 68 | 131 | 3.0 | 8.0 | 0.00 | 0.02 | 0.02 | 60 | 1021.9 |
| 20260905030027 | 68 | 159 | 3.0 | 9.0 | 0.00 | 0.02 | 0.02 | 60 | 1021.7 |
| 20260905024529 | 68 | 153 | 4.0 | 11.0 | 0.00 | 0.02 | 0.02 | 59 | 1021.5 |
| 20260905023017 | 68 | 128 | 5.0 | 12.0 | 0.00 | 0.02 | 0.02 | 60 | 1021.2 |
| 20260905021517 | 69 | 138 | 7.0 | 12.0 | 0.00 | 0.02 | 0.02 | 59 | 1020.9 |
| 20260905020025 | 69 | 150 | 8.0 | 17.0 | 0.00 | 0.02 | 0.02 | 58 | 1020.8 |
| 20260905014516 | 70 | 140 | 8.0 | 21.0 | 0.00 | 0.02 | 0.02 | 57 | 1020.7 |
| 20260905013015 | 70 | 168 | 12.0 | 24.0 | 0.00 | 0.02 | 0.02 | 57 | 1020.8 |
| 20260905011514 | 71 | 159 | 11.0 | 22.0 | 0.00 | 0.02 | 0.02 | 56 | 1020.7 |
| 20260905010014 | 72 | 184 | 13.0 | 23.0 | 0.00 | 0.02 | 0.02 | 53 | 1020.7 |
| 20260905004513 | 75 | 175 | 14.0 | 29.0 | 0.00 | 0.02 | 0.02 | 47 | 1020.5 |
| 20260905003013 | 79 | 205 | 5.0 | 9.0 | 0.00 | 0.02 | 0.02 | 36 | 1019.9 |
| 20260905001512 | 80 | 209 | 6.0 | 9.0 | 0.00 | 0.02 | 0.02 | 35 | 1019.7 |
| 20260905000012 | 80 | 203 | 3.0 | 9.0 | 0.00 | 0.02 | 0.02 | 35 | 1019.5 |
| 20260904234511 | 81 | 228 | 5.0 | 9.0 | 0.00 | 0.02 | 0.02 | 34 | 1019.5 |
| 20260904233011 | 81 | 250 | 5.0 | 9.0 | 0.00 | 0.02 | 0.02 | 33 | 1019.4 |
| 20260904231510 | 81 | 229 | 7.0 | 10.0 | 0.00 | 0.02 | 0.02 | 33 | 1019.4 |
| 20260904230010 | 82 | 230 | 6.0 | 10.0 | 0.00 | 0.02 | 0.02 | 33 | 1019.4 |
| 20260904224511 | 83 | 217 | 5.0 | 12.0 | 0.00 | 0.02 | 0.02 | 32 | 1019.3 |
| 20260904223016 | 84 | 233 | 3.0 | 11.0 | 0.00 | 0.02 | 0.02 | 32 | 1019.3 |
| 20260904221506 | 83 | 207 | 5.0 | 10.0 | 0.00 | 0.02 | 0.02 | 33 | 1019.4 |
| 20260904220007 | 83 | 244 | 6.0 | 10.0 | 0.00 | 0.02 | 0.02 | 32 | 1019.5 |
| 20260904214505 | 85 | 224 | 5.0 | 9.0 | 0.00 | 0.02 | 0.02 | 30 | 1019.5 |
| 20260904213010 | 86 | 188 | 7.0 | 11.0 | 0.00 | 0.02 | 0.02 | 29 | 1019.6 |
| 20260904211616 | 87 | 267 | 9.0 | 12.0 | 0.00 | 0.02 | 0.02 | 29 | 1019.8 |
| 20260904210100 | 86 | 273 | 5.0 | 12.0 | 0.00 | 0.02 | 0.02 | 30 | 1019.8 |
| 20260904204600 | 85 | 215 | 3.0 | 8.0 | 0.00 | 0.02 | 0.02 | 31 | 1020.1 |
| 20260904203108 | 86 | 274 | 3.0 | 8.0 | 0.00 | 0.02 | 0.02 | 31 | 1020.2 |
| 20260904201555 | 85 | 149 | 3.0 | 8.0 | 0.00 | 0.02 | 0.02 | 34 | 1020.3 |
| 20260904194554 | 84 | 299 | 5.0 | 10.0 | 0.00 | 0.02 | 0.02 | 33 | 1020.8 |
| 20260904193048 | 83 | 252 | 2.0 | 8.0 | 0.00 | 0.02 | 0.02 | 36 | 1021.0 |
| 20260904191540 | 82 | 209 | 5.0 | 9.0 | 0.00 | 0.02 | 0.02 | 37 | 1021.3 |
| 20260904190035 | 80 | 221 | 3.0 | 7.0 | 0.00 | 0.02 | 0.02 | 37 | 1021.5 |
| 20260904184533 | 79 | 319 | 5.0 | 12.0 | 0.00 | 0.02 | 0.02 | 40 | 1021.8 |
| 20260904183029 | 77 | 245 | 6.0 | 10.0 | 0.00 | 0.02 | 0.02 | 44 | 1021.9 |